| time (UTC) | temp F | wind direction | speed MPH | gust MPH | rain 1hr in | rain 24hr in | rain mn in | humidity % | barometer mb |
| 20260504050021 | 69 | 217 | 1.0 | 5.0 | 0.00 | 0.00 | 0.00 | 58 | 1013.2 |
| 20260504044534 | 69 | 191 | 2.0 | 7.0 | 0.00 | 0.00 | 0.00 | 58 | 1013.2 |
| 20260504043021 | 69 | 219 | 2.0 | 6.0 | 0.00 | 0.00 | 0.00 | 57 | 1013.4 |
| 20260504041518 | 70 | 178 | 1.0 | 8.0 | 0.00 | 0.00 | 0.00 | 57 | 1013.5 |
| 20260504040018 | 70 | 223 | 1.0 | 5.0 | 0.00 | 0.00 | 0.00 | 56 | 1013.4 |
| 20260504034524 | 70 | 182 | 2.0 | 8.0 | 0.00 | 0.00 | 0.00 | 56 | 1013.3 |
| 20260504033018 | 71 | 198 | 1.0 | 6.0 | 0.00 | 0.00 | 0.00 | 56 | 1013.4 |
| 20260504031516 | 71 | 210 | 1.0 | 5.0 | 0.00 | 0.00 | 0.00 | 55 | 1013.4 |
| 20260504030015 | 72 | 195 | 1.0 | 6.0 | 0.00 | 0.00 | 0.00 | 53 | 1013.2 |
| 20260504024519 | 72 | 216 | 1.0 | 5.0 | 0.00 | 0.00 | 0.00 | 50 | 1013.1 |
| 20260504023014 | 73 | 223 | 1.0 | 4.0 | 0.00 | 0.00 | 0.00 | 49 | 1013.1 |
| 20260504021515 | 74 | 227 | 1.0 | 7.0 | 0.00 | 0.00 | 0.00 | 47 | 1013.1 |
| 20260504020015 | 74 | 185 | 4.0 | 11.0 | 0.00 | 0.00 | 0.00 | 46 | 1013.0 |
| 20260504014515 | 74 | 217 | 1.0 | 13.0 | 0.00 | 0.00 | 0.00 | 46 | 1012.9 |
| 20260504013012 | 75 | 179 | 1.0 | 7.0 | 0.00 | 0.00 | 0.00 | 45 | 1012.8 |
| 20260504011512 | 75 | 165 | 2.0 | 6.0 | 0.00 | 0.00 | 0.00 | 45 | 1012.8 |
| 20260504010011 | 76 | 207 | 2.0 | 5.0 | 0.00 | 0.00 | 0.00 | 44 | 1012.7 |
| 20260504004512 | 77 | 149 | 0.0 | 11.0 | 0.00 | 0.00 | 0.00 | 44 | 1012.5 |
| 20260504003008 | 77 | 208 | 2.0 | 6.0 | 0.00 | 0.00 | 0.00 | 43 | 1012.7 |
| 20260504001507 | 79 | 247 | 3.0 | 8.0 | 0.00 | 0.00 | 0.00 | 41 | 1012.7 |
| 20260504000005 | 79 | 211 | 2.0 | 11.0 | 0.00 | 0.00 | 0.00 | 41 | 1012.8 |
| 20260503234504 | 80 | 223 | 5.0 | 10.0 | 0.00 | 0.00 | 0.00 | 40 | 1012.9 |
| 20260503233005 | 80 | 228 | 2.0 | 9.0 | 0.00 | 0.00 | 0.00 | 39 | 1013.0 |
| 20260503231502 | 80 | 202 | 2.0 | 10.0 | 0.00 | 0.00 | 0.00 | 40 | 1013.1 |
| 20260503224558 | 81 | 218 | 3.0 | 11.0 | 0.00 | 0.00 | 0.00 | 38 | 1013.3 |
| 20260503223058 | 81 | 216 | 3.0 | 10.0 | 0.00 | 0.00 | 0.00 | 39 | 1013.4 |
| 20260503221556 | 81 | 235 | 4.0 | 12.0 | 0.00 | 0.00 | 0.00 | 37 | 1013.5 |
| 20260503220109 | 81 | 199 | 4.0 | 11.0 | 0.00 | 0.00 | 0.00 | 38 | 1013.7 |
| 20260503214553 | 81 | 236 | 5.0 | 12.0 | 0.00 | 0.00 | 0.00 | 36 | 1013.9 |
| 20260503213051 | 81 | 213 | 3.0 | 12.0 | 0.00 | 0.00 | 0.00 | 38 | 1014.2 |
| 20260503211602 | 82 | 165 | 6.0 | 11.0 | 0.00 | 0.00 | 0.00 | 36 | 1014.3 |
| 20260503210049 | 81 | 202 | 5.0 | 10.0 | 0.00 | 0.00 | 0.00 | 39 | 1014.5 |
| 20260503204551 | 81 | 214 | 3.0 | 8.0 | 0.00 | 0.00 | 0.00 | 41 | 1014.8 |
| 20260503203041 | 81 | 223 | 4.0 | 11.0 | 0.00 | 0.00 | 0.00 | 38 | 1015.1 |
| 20260503201540 | 81 | 202 | 3.0 | 8.0 | 0.00 | 0.00 | 0.00 | 39 | 1015.4 |
| 20260503200037 | 81 | 224 | 4.0 | 9.0 | 0.00 | 0.00 | 0.00 | 37 | 1015.7 |
| 20260503194535 | 80 | 252 | 3.0 | 9.0 | 0.00 | 0.00 | 0.00 | 39 | 1016.0 |
| 20260503193038 | 80 | 170 | 4.0 | 11.0 | 0.00 | 0.00 | 0.00 | 42 | 1016.2 |
| 20260503191535 | 80 | 253 | 3.0 | 9.0 | 0.00 | 0.00 | 0.00 | 44 | 1016.5 |
| 20260503190027 | 79 | 211 | 4.0 | 11.0 | 0.00 | 0.00 | 0.00 | 43 | 1016.6 |
| 20260503184527 | 79 | 217 | 5.0 | 11.0 | 0.00 | 0.00 | 0.00 | 44 | 1016.9 |
| 20260503183033 | 79 | 279 | 4.0 | 11.0 | 0.00 | 0.00 | 0.00 | 44 | 1017.1 |
| 20260503181528 | 78 | 217 | 5.0 | 13.0 | 0.00 | 0.00 | 0.00 | 45 | 1017.4 |
| 20260503180020 | 78 | 205 | 4.0 | 12.0 | 0.00 | 0.00 | 0.00 | 47 | 1017.7 |
| 20260503174519 | 78 | 269 | 2.0 | 10.0 | 0.00 | 0.00 | 0.00 | 50 | 1018.0 |
| 20260503173036 | 77 | 179 | 4.0 | 12.0 | 0.00 | 0.00 | 0.00 | 51 | 1018.2 |
| 20260503171513 | 77 | 212 | 3.0 | 9.0 | 0.00 | 0.00 | 0.00 | 53 | 1018.4 |
| 20260503081602 | 59 | 214 | 0.0 | 1.0 | 0.00 | 0.00 | 0.00 | 74 | 1017.6 |